When you browse on this site, cookies collect data to enhance your experience and personalize the content and advertising you see.
Visit our Privacy Policy to learn more. By continuing to use the site, you agree to this use of cookies and data.
  • In Hungary
  • List of Countries
  • For 7 days
  • Water Temperature
  • Weather Map
  • News
  • Weather Widgets
  • user-avatar
    Login

    Hourly Weather Sedrowo

    Today, 30 March, Monday

    Time Temperature Precipitation Wind Pressure Humidity
    00:00 -5°C° 0 mm 5 mps 753 mmHg 61%
    01:00 -5°C° 0 mm 4 mps 754 mmHg 56%
    02:00 -5°C° 0 mm 4 mps 754 mmHg 57%
    03:00 -5°C° 0 mm 4 mps 753 mmHg 57%
    04:00 -5°C° 0 mm 4 mps 753 mmHg 58%
    05:00 -4°C° 0 mm 4 mps 753 mmHg 54%
    06:00 -4°C° 0 mm 4 mps 753 mmHg 51%
    07:00 -4°C° 0 mm 5 mps 754 mmHg 48%
    08:00 -2°C° 0 mm 5 mps 754 mmHg 47%
    09:00 -1°C° 0 mm 5 mps 754 mmHg 47%
    10:00 0°C° 0 mm 5 mps 754 mmHg 46%
    11:00 +1°C° 0.2 mm 5 mps 754 mmHg 45%
    12:00 +2°C° 0.2 mm 5 mps 754 mmHg 44%
    13:00 +4°C° 0 mm 4 mps 754 mmHg 41%
    14:00 +3°C° 0.3 mm 4 mps 753 mmHg 43%
    15:00 +3°C° 0.3 mm 4 mps 753 mmHg 44%
    16:00 +3°C° 0.3 mm 4 mps 753 mmHg 46%
    17:00 +2°C° 0.1 mm 3 mps 753 mmHg 53%
    18:00 +1°C° 0.1 mm 2 mps 753 mmHg 59%
    19:00 +1°C° 0.1 mm 1 mps 754 mmHg 66%
    20:00 +1°C° 0 mm 1 mps 754 mmHg 66%
    21:00 +1°C° 0 mm 1 mps 754 mmHg 67%
    22:00 0°C° 0 mm 1 mps 754 mmHg 67%
    23:00 0°C° 0.2 mm 1 mps 754 mmHg 72%

    Tomorrow, 31 March, Tuesday

    Time Temperature Precipitation Wind Pressure Humidity
    00:00 0°C° 0.2 mm 1 mps 755 mmHg 77%
    01:00 0°C° 0.2 mm 1 mps 755 mmHg 82%
    02:00 -2°C° 0.5 mm 2 mps 755 mmHg 84%
    03:00 -4°C° 0.5 mm 3 mps 755 mmHg 86%
    04:00 -4°C° 0.5 mm 3 mps 755 mmHg 88%
    05:00 -4°C° 0 mm 3 mps 755 mmHg 83%
    06:00 -4°C° 0 mm 3 mps 755 mmHg 77%
    07:00 -3°C° 0 mm 2 mps 755 mmHg 72%
    08:00 -1°C° 0.1 mm 2 mps 755 mmHg 68%
    09:00 +1°C° 0.1 mm 2 mps 756 mmHg 65%
    10:00 +2°C° 0.1 mm 2 mps 756 mmHg 61%
    11:00 +3°C° 0.1 mm 2 mps 756 mmHg 58%
    12:00 +3°C° 0.1 mm 3 mps 755 mmHg 54%
    13:00 +3°C° 0.1 mm 3 mps 755 mmHg 51%
    14:00 +3°C° 0.1 mm 3 mps 755 mmHg 54%
    15:00 +3°C° 0.1 mm 3 mps 755 mmHg 57%
    16:00 +3°C° 0.1 mm 3 mps 755 mmHg 59%
    17:00 +1°C° 0.1 mm 3 mps 755 mmHg 67%
    18:00 0°C° 0.1 mm 3 mps 755 mmHg 75%
    19:00 -2°C° 0.1 mm 3 mps 755 mmHg 83%
    20:00 -4°C° 0 mm 3 mps 755 mmHg 84%
    21:00 -4°C° 0 mm 3 mps 755 mmHg 86%
    22:00 -4°C° 0 mm 2 mps 755 mmHg 87%
    23:00 -4°C° 0 mm 2 mps 754 mmHg 87%

    Day after tomorrow, 1 April, Wednesday

    Time Temperature Precipitation Wind Pressure Humidity
    00:00 -5°C° 0 mm 3 mps 754 mmHg 86%
    01:00 -5°C° 0 mm 3 mps 754 mmHg 86%
    02:00 -5°C° 0 mm 3 mps 753 mmHg 85%
    03:00 -5°C° 0 mm 4 mps 753 mmHg 85%
    04:00 -5°C° 0 mm 4 mps 752 mmHg 84%
    05:00 -5°C° 0 mm 5 mps 752 mmHg 76%
    06:00 -4°C° 0 mm 5 mps 751 mmHg 68%
    07:00 -4°C° 0 mm 6 mps 751 mmHg 60%
    08:00 -2°C° 0 mm 6 mps 751 mmHg 60%
    09:00 +1°C° 0 mm 6 mps 750 mmHg 59%
    10:00 +2°C° 0 mm 7 mps 750 mmHg 59%
    11:00 +3°C° 0 mm 7 mps 750 mmHg 60%
    12:00 +3°C° 0 mm 7 mps 749 mmHg 60%
    13:00 +4°C° 0 mm 7 mps 749 mmHg 61%
    14:00 +4°C° 0.1 mm 7 mps 749 mmHg 63%
    15:00 +4°C° 0.1 mm 6 mps 748 mmHg 65%
    16:00 +3°C° 0.1 mm 6 mps 748 mmHg 67%
    17:00 +2°C° 0 mm 5 mps 748 mmHg 72%
    18:00 +1°C° 0 mm 4 mps 747 mmHg 78%
    19:00 0°C° 0 mm 4 mps 747 mmHg 83%
    20:00 0°C° 0 mm 4 mps 747 mmHg 85%
    21:00 0°C° 0 mm 5 mps 746 mmHg 86%
    22:00 0°C° 0 mm 5 mps 746 mmHg 88%
    23:00 0°C° 0 mm 5 mps 746 mmHg 88%

    2 April, Thursday

    Time Temperature Precipitation Wind Pressure Humidity
    00:00 0°C° 0 mm 5 mps 746 mmHg 88%
    01:00 -1°C° 0 mm 6 mps 745 mmHg 89%
    02:00 0°C° 0 mm 5 mps 745 mmHg 88%
    03:00 0°C° 0 mm 5 mps 745 mmHg 88%
    04:00 0°C° 0 mm 5 mps 745 mmHg 87%
    05:00 +1°C° 0 mm 6 mps 745 mmHg 86%
    06:00 +1°C° 0 mm 6 mps 745 mmHg 84%
    07:00 +1°C° 0 mm 6 mps 745 mmHg 83%
    08:00 +2°C° 0 mm 6 mps 745 mmHg 79%
    09:00 +2°C° 0 mm 6 mps 745 mmHg 74%
    10:00 +3°C° 0 mm 6 mps 745 mmHg 70%
    11:00 +4°C° 0 mm 6 mps 745 mmHg 68%
    12:00 +4°C° 0 mm 6 mps 745 mmHg 66%
    13:00 +5°C° 0 mm 6 mps 745 mmHg 64%
    14:00 +5°C° 0 mm 6 mps 745 mmHg 65%
    15:00 +5°C° 0 mm 6 mps 745 mmHg 65%
    16:00 +4°C° 0 mm 6 mps 744 mmHg 66%
    17:00 +5°C° 0 mm 5 mps 744 mmHg 67%
    18:00 +3°C° 0 mm 5 mps 744 mmHg 68%
    19:00 +3°C° 0 mm 5 mps 744 mmHg 69%
    20:00 +3°C° 0 mm 5 mps 743 mmHg 69%
    21:00 +3°C° 0 mm 5 mps 743 mmHg 69%
    22:00 +3°C° 0 mm 5 mps 742 mmHg 70%
    23:00 +2°C° 0 mm 5 mps 742 mmHg 71%

    3 April, Friday

    Time Temperature Precipitation Wind Pressure Humidity
    00:00 +2°C° 0 mm 6 mps 741 mmHg 72%
    01:00 +2°C° 0 mm 6 mps 741 mmHg 74%
    02:00 +2°C° 0 mm 6 mps 741 mmHg 75%
    03:00 +1°C° 0 mm 6 mps 740 mmHg 77%
    04:00 0°C° 0 mm 7 mps 740 mmHg 78%
    05:00 0°C° 0.1 mm 7 mps 740 mmHg 80%
    06:00 +2°C° 0.1 mm 7 mps 741 mmHg 81%
    07:00 +1°C° 0.1 mm 8 mps 741 mmHg 82%
    08:00 +2°C° 0.2 mm 8 mps 741 mmHg 74%
    09:00 +4°C° 0.2 mm 8 mps 742 mmHg 66%
    10:00 +5°C° 0.2 mm 8 mps 742 mmHg 57%
    11:00 +5°C° 0.1 mm 8 mps 743 mmHg 55%
    12:00 +5°C° 0.1 mm 8 mps 743 mmHg 54%
    13:00 +6°C° 0.1 mm 8 mps 744 mmHg 52%
    14:00 +6°C° 0.2 mm 8 mps 744 mmHg 52%
    15:00 +5°C° 0.2 mm 8 mps 745 mmHg 53%
    16:00 +5°C° 0.2 mm 7 mps 745 mmHg 53%
    17:00 +4°C° 0.1 mm 6 mps 745 mmHg 57%
    18:00 +3°C° 0.1 mm 5 mps 746 mmHg 62%
    19:00 +1°C° 0.1 mm 4 mps 747 mmHg 66%
    20:00 +1°C° 0 mm 4 mps 747 mmHg 67%
    21:00 0°C° 0 mm 4 mps 748 mmHg 67%
    22:00 0°C° 0 mm 4 mps 749 mmHg 67%
    23:00 -1°C° 0 mm 4 mps 749 mmHg 69%

    4 April, Saturday

    Time Temperature Precipitation Wind Pressure Humidity
    00:00 -1°C° 0 mm 4 mps 750 mmHg 71%
    01:00 -1°C° 0 mm 4 mps 750 mmHg 73%
    02:00 -2°C° 0 mm 4 mps 751 mmHg 75%
    03:00 -2°C° 0 mm 4 mps 751 mmHg 78%
    04:00 -2°C° 0 mm 4 mps 752 mmHg 80%
    05:00 -1°C° 0 mm 4 mps 752 mmHg 75%
    06:00 -1°C° 0 mm 5 mps 753 mmHg 71%
    07:00 -1°C° 0 mm 6 mps 754 mmHg 67%
    08:00 +1°C° 0 mm 6 mps 754 mmHg 62%
    09:00 +3°C° 0 mm 6 mps 755 mmHg 57%
    10:00 +4°C° 0 mm 6 mps 755 mmHg 52%
    11:00 +5°C° 0 mm 6 mps 755 mmHg 49%
    12:00 +6°C° 0 mm 5 mps 756 mmHg 46%
    13:00 +7°C° 0 mm 5 mps 756 mmHg 43%
    14:00 +7°C° 0 mm 5 mps 756 mmHg 45%
    15:00 +7°C° 0 mm 4 mps 756 mmHg 47%
    16:00 +6°C° 0 mm 4 mps 757 mmHg 48%
    17:00 +5°C° 0 mm 3 mps 757 mmHg 56%
    18:00 +4°C° 0 mm 3 mps 757 mmHg 64%
    19:00 +3°C° 0 mm 2 mps 758 mmHg 72%
    20:00 +2°C° 0 mm 2 mps 758 mmHg 75%
    21:00 +1°C° 0 mm 2 mps 759 mmHg 78%
    22:00 +2°C° 0 mm 1 mps 760 mmHg 81%
    23:00 +1°C° 0 mm 1 mps 760 mmHg 80%
    Show more